User: anonymous   Login
Location: Anjeux
(47.8815°N, 6.2076°E)
Time: 17:34:55
(UTC+00:00)
Language:

ADEOS II - Orbit

View from above orbital plane
View from above orbital plane
View from above satellite
View from above satellite

Ground track
Ground track

The orbit data is extracted from the following two-line orbital elements,

1 27597U 02056A   21129.26325621  .00000019  00000-0  25286-4 0  9992
2 27597  98.5619  75.3658 0002088  98.0348 262.1070 14.27497469958298
Epoch (UTC): 09 May 2021 06:19:05
Eccentricity: 0.0002088
inclination: 98.5619°
perigee height: 798 km
apogee height: 801 km
right ascension of ascending node: 75.3658°
argument of perigee: 98.0348°
revolutions per day: 14.27497469
mean anomaly at epoch: 262.1070°
orbit number at epoch: 95829

The dashed part of the orbit path shows where the satellite is in the earth's shadow,  

DLR